Regional Weather Roundup
Issued by NWS Bismarck, ND

Home | Current Version | Previous Version | Text Only | Print | Product List | Glossary On
Versions: 1 2 3 4 5 6 7 8 9 10 11 12 13 14 15 16 17 18 19 20 21 22 23 24 25 26 27 28 29 30 31 32 33 34 35 36 37 38 39 40 41 42 43 44 45 46 47 48 49 50
000
ASUS43 KBIS 180002
RWRBIS

NWR BROADCAST TEXT
NATIONAL WEATHER SERVICE BISMARCK ND
600 PM CST FRI NOV 17 2017

NOTE: "FAIR" INDICATES FEW OR NO CLOUDS BELOW 12,000 FEET WITH NO
SIGNIFICANT WEATHER AND/OR OBSTRUCTIONS TO VISIBILITY.


CITY           SKY/WX    TMP DP  RH WIND       PRES   REMARKS
WILLISTON      MOCLDY    26  19  74 N7        29.70R WCI  18
MINOT          CLOUDY    18  12  77 CALM      29.71R
MINOT AFB      NOT AVBL
BISMARCK       CLOUDY    31  24  75 NE3       29.73R
DICKINSON      PTCLDY    30  22  72 S6        29.66R
GARRISON         N/A     24  20  84 CALM      29.70R
HETTINGER ARPT MOCLDY    35  28  75 CALM      29.69R
JAMESTOWN      CLOUDY    24  18  77 N9        29.70F WCI  14
CARRINGTON     FAIR      19  16  86 CALM      29.74R
HAZEN          FAIR      25  23  93 E3        29.72R
LINTON           N/A     32  19  59 CALM      29.72R
MANDAN         FAIR      28  21  74 E5        29.72R
OAKES            N/A     28  19  69 N13       29.69S WCI  18
RUGBY          FAIR      16  12  86 W5        29.72R WCI   9
STANLEY        FAIR      25  18  74 SE3       29.71R
TIOGA          FAIR      25  21  86 CALM      29.69R
WATFORD CITY   FAIR      25  18  74 CALM      29.68R
$$

CITY           SKY/WX    TMP DP  RH WIND       PRES   REMARKS
GRAND FORKS    MOCLDY    18  14  84 NW3       29.75R
GRAND FORKS AF PTCLDY    15  12  88 CALM      29.74R
DEVILS LAKE    CLOUDY    18  15  88 NW5       29.71F WCI  11
FARGO          MOCLDY    28  19  69 NW9       29.73R WCI  19
CANDO          FAIR      16  16 100 NW6       29.74R WCI   7
CAVALIER       FAIR      18  10  73 CALM      29.75R
GRAFTON        FAIR      18  16  93 CALM      29.77R
GWINNER          N/A     28  19  69 N13       29.70F WCI  18
LANGDON        FAIR      14  14 100 NW7       29.71R WCI   4
ROLLA          FAIR      14  12  92 N6        29.70R WCI   5
WALHALLA       FAIR      18  16  93 NW7       29.74R WCI   8
$$

CITY           SKY/WX    TMP DP  RH WIND       PRES   REMARKS
ABERDEEN       CLOUDY    35  22  58 N8        29.70S
MOBRIDGE       CLOUDY    38  27  64 N7        29.67R
BUFFALO          N/A     38  31  76 SW6       29.62R
RAPID CITY     CLOUDY    38  36  92 N7        29.69R
GLASGOW        PTCLDY    32  23  69 W6        29.70R
SIDNEY         CLOUDY    33  25  72 N6        29.69R
WOLF POINT     PTCLDY    36  24  62 SW6       29.70R
GLENDIVE       CLOUDY    39  24  55 N10       29.69R
MILES CITY     PTCLDY    36  26  67 W8        29.71R
BAKER          PTCLDY    35  31  85 SW9       29.68R
$$

CITY           SKY/WX    TMP DP  RH WIND       PRES   REMARKS
BILLINGS       PTCLDY    38  19  46 W21G28    29.78R
GREAT FALLS    CLEAR     34  17  50 W17       29.79R
$$





USA.gov is the U.S. government's official web portal to all federal, state and local government web resources and services.